User: anonymous   Login
Location: Unspecified
(0.0000°N, 0.0000°E)
Time: 08:34:31
(UTC+02:00)
Language:

ARIANE 5 R/B - Orbit

View from above orbital plane
View from above orbital plane
View from above satellite
View from above satellite

Ground track
Ground track

The orbit data is extracted from the following two-line orbital elements,

1 28379U 04027B   17087.66772794 -.00000137 +00000-0 -18667-2 0  9996
2 28379 007.2307 355.4104 7292397 019.5284 240.3203 02.07930143096468
Epoch (UTC): 28 March 2017 16:01:31
Eccentricity: 0.7292397
inclination: 7.2307°
perigee height: 642 km
apogee height: 38459 km
right ascension of ascending node: 355.4104°
argument of perigee: 19.5284°
revolutions per day: 2.07930143
mean anomaly at epoch: 240.3203°
orbit number at epoch: 9646

The dashed part of the orbit path shows where the satellite is in the earth's shadow,  

DLR